FW6055 Weather Reports


time (UTC)temp
C
wind
direction
speed
KPH
gust
KPH
rain 1hr
cm
rain 24hr
cm
rain mn
cm
humidity
%
barometer
mb
20260506165540 11 185 0.0 1.6 0.00 0.00 0.00 50 1012.9
20260506165036 11 272 6.4 9.7 0.00 0.00 0.00 48 1012.9
20260506164533 11 259 3.2 4.8 0.00 0.00 0.00 50 1012.9
20260506164030 11 89 8.0 11.3 0.00 0.00 0.00 49 1012.9
20260506163526 11 207 3.2 4.8 0.00 0.00 0.00 49 1012.9
20260506163022 11 186 3.2 3.2 0.00 0.00 0.00 48 1012.6
20260506162518 11 266 6.4 6.4 0.00 0.00 0.00 47 1012.9
20260506162015 12 190 1.6 3.2 0.00 0.00 0.00 45 1012.9
20260506161513 12 242 4.8 9.7 0.00 0.00 0.00 46 1012.9
20260506161009 12 182 3.2 3.2 0.00 0.00 0.00 48 1012.6
20260506160507 12 299 1.6 3.2 0.00 0.00 0.00 47 1012.9
20260506160004 12 223 6.4 9.7 0.00 0.00 0.00 48 1012.6
20260506155502 12 234 3.2 3.2 0.00 0.00 0.00 46 1012.6
20260506153634 12 242 6.4 11.3 0.00 0.00 0.00 48 1012.6
20260506153131 12 295 6.4 6.4 0.00 0.00 0.00 50 1012.6
20260506152628 12 185 1.6 4.8 0.00 0.00 0.00 51 1012.6
20260506152126 12 243 3.2 4.8 0.00 0.00 0.00 53 1012.3
20260506151624 12 356 8.0 9.7 0.00 0.00 0.00 53 1012.6
20260506151121 11 260 3.2 4.8 0.00 0.00 0.00 57 1012.3
20260506150618 12 280 6.4 9.7 0.00 0.00 0.00 57 1012.3
20260506150115 12 232 4.8 6.4 0.00 0.00 0.00 57 1012.3
20260506145612 12 112 3.2 3.2 0.00 0.00 0.00 58 1012.3
20260506145108 12 219 3.2 3.2 0.00 0.00 0.00 54 1012.3
20260506144606 12 293 4.8 6.4 0.00 0.00 0.00 54 1011.9
20260506144102 12 200 3.2 3.2 0.00 0.00 0.00 53 1012.3
20260506143600 12 183 0.0 1.6 0.00 0.00 0.00 54 1012.3
20260506143058 12 233 1.6 3.2 0.00 0.00 0.00 54 1012.3
20260506142556 12 203 1.6 3.2 0.00 0.00 0.00 57 1011.9
20260506142054 11 243 1.6 3.2 0.00 0.00 0.00 56 1011.9
20260506141551 11 149 0.0 1.6 0.00 0.00 0.00 58 1011.9
20260506141050 11 258 1.6 3.2 0.00 0.00 0.00 57 1011.9
20260506140547 11 234 3.2 3.2 0.00 0.00 0.00 59 1011.9
20260506140044 11 187 1.6 1.6 0.00 0.00 0.00 59 1011.9
20260506135541 12 61 1.6 3.2 0.00 0.00 0.00 60 1011.9
20260506135037 11 176 1.6 1.6 0.00 0.00 0.00 62 1011.6
20260506134533 11 80 3.2 3.2 0.00 0.00 0.00 60 1011.9
20260506134029 11 213 3.2 4.8 0.00 0.00 0.00 61 1011.9
20260506133527 11 211 3.2 4.8 0.00 0.00 0.00 62 1011.9
20260506133023 10 192 1.6 1.6 0.00 0.00 0.00 65 1011.6
20260506132521 11 194 1.6 1.6 0.00 0.00 0.00 64 1011.6
20260506132018 10 178 1.6 1.6 0.00 0.00 0.00 68 1011.6
20260506131515 10 166 0.0 0.0 0.00 0.00 0.00 68 1011.6
20260506131011 10 177 0.0 0.0 0.00 0.00 0.00 69 1011.2
20260506130508 10 146 0.0 0.0 0.00 0.00 0.00 70 1011.2
20260506130006 10 164 0.0 1.6 0.00 0.00 0.00 69 1011.2
20260506125504 10 168 0.0 0.0 0.00 0.00 0.00 70 1011.2
20260506125001 10 184 1.6 1.6 0.00 0.00 0.00 70 1011.2
20260506124459 10 163 0.0 0.0 0.00 0.00 0.00 70 1011.2
20260506123957 10 126 1.6 1.6 0.00 0.00 0.00 71 1011.2
20260506123454 10 219 3.2 3.2 0.00 0.00 0.00 71 1011.2
20260506122952 9 190 1.6 1.6 0.00 0.00 0.00 71 1010.9
20260506122449 8 163 0.0 1.6 0.00 0.00 0.00 72 1010.5
20260506121947 8 176 0.0 1.6 0.00 0.00 0.00 73 1010.9
20260506121444 8 158 0.0 0.0 0.00 0.00 0.00 73 1010.9
20260506120940 8 180 0.0 0.0 0.00 0.00 0.00 72 1010.9
20260506120438 8 79 1.6 3.2 0.00 0.00 0.00 71 1010.9
20260506115935 8 176 0.0 0.0 0.00 0.00 0.00 72 1010.5
20260506115433 8 155 0.0 0.0 0.00 0.00 0.00 71 1010.9
20260506114931 8 183 0.0 1.6 0.00 0.00 0.00 71 1010.9
20260506114428 8 174 0.0 0.0 0.00 0.00 0.00 71 1010.5
20260506113927 8 180 0.0 0.0 0.00 0.00 0.00 71 1010.1
20260506113424 8 181 0.0 0.0 0.00 0.00 0.00 72 1010.5
20260506112920 8 182 0.0 0.0 0.00 0.00 0.00 71 1010.5
20260506112418 8 185 0.0 0.0 0.00 0.00 0.00 71 1010.5
20260506111916 8 185 0.0 0.0 0.00 0.00 0.00 70 1010.5
20260506111414 8 172 0.0 1.6 0.00 0.00 0.00 70 1010.5
20260506110910 8 167 0.0 0.0 0.00 0.00 0.00 70 1010.1
20260506110408 8 174 0.0 0.0 0.00 0.00 0.00 70 1010.1
20260506105905 8 176 0.0 0.0 0.00 0.00 0.00 69 1010.1
20260506105401 8 177 0.0 0.0 0.00 0.00 0.00 69 1009.8
20260506104858 8 167 0.0 0.0 0.00 0.00 0.00 68 1010.1
20260506104356 8 184 0.0 0.0 0.00 0.00 0.00 68 1009.8
20260506103854 8 186 0.0 1.6 0.00 0.00 0.00 67 1009.8
20260506103351 8 189 0.0 1.6 0.00 0.00 0.00 67 1009.4
20260506102848 8 189 0.0 0.0 0.00 0.00 0.00 67 1009.4
20260506102346 8 188 0.0 1.6 0.00 0.00 0.00 66 1009.4
20260506101843 8 188 0.0 0.0 0.00 0.00 0.00 66 1009.4
20260506101339 8 188 0.0 0.0 0.00 0.00 0.00 66 1009.4
20260506100837 8 188 0.0 0.0 0.00 0.00 0.00 66 1009.4
20260506100335 8 189 0.0 0.0 0.00 0.00 0.00 65 1009.4
20260506095833 8 185 0.0 0.0 0.00 0.00 0.00 65 1009.4
20260506095330 9 185 0.0 0.0 0.00 0.00 0.00 65 1009.4
20260506094827 8 179 0.0 0.0 0.00 0.00 0.00 64 1009.4
20260506094326 9 181 0.0 0.0 0.00 0.00 0.00 65 1009.1
20260506093823 8 159 0.0 1.6 0.00 0.00 0.00 63 1009.1
20260506093320 8 183 0.0 0.0 0.00 0.00 0.00 64 1008.8
20260506092818 8 183 0.0 0.0 0.00 0.00 0.00 64 1009.1
20260506092315 9 184 0.0 0.0 0.00 0.00 0.00 64 1009.1
20260506091812 9 184 0.0 0.0 0.00 0.00 0.00 63 1009.4
20260506091310 9 192 0.0 0.0 0.00 0.00 0.00 63 1009.1
20260506090808 9 171 0.0 0.0 0.00 0.00 0.00 63 1009.1
20260506090304 9 168 0.0 0.0 0.00 0.00 0.00 62 1008.8
20260506085801 9 162 0.0 0.0 0.00 0.00 0.00 63 1008.8
20260506085257 9 185 0.0 0.0 0.00 0.00 0.00 62 1009.1
20260506084754 9 168 0.0 0.0 0.00 0.00 0.00 61 1008.8
20260506084250 9 161 0.0 0.0 0.00 0.00 0.00 62 1008.8
20260506083747 9 166 0.0 0.0 0.00 0.00 0.00 61 1009.1
20260506083245 9 182 1.6 1.6 0.00 0.00 0.00 61 1008.8
20260506082742 9 173 0.0 0.0 0.00 0.00 0.00 61 1008.8
20260506082237 9 179 0.0 0.0 0.00 0.00 0.00 62 1008.8
20260506081736 9 155 0.0 0.0 0.00 0.00 0.00 61 1008.8
20260506081233 9 179 0.0 0.0 0.00 0.00 0.00 60 1008.8
20260506080731 9 164 0.0 0.0 0.00 0.00 0.00 61 1008.8
20260506080227 9 168 0.0 0.0 0.00 0.00 0.00 63 1008.8
20260506073211 10 177 1.6 1.6 0.00 0.00 0.00 63 1008.8
20260506072708 10 184 0.0 0.0 0.00 0.00 0.00 64 1008.8
20260506072206 10 185 0.0 0.0 0.00 0.00 0.00 63 1008.8
20260506071703 10 180 0.0 0.0 0.00 0.00 0.00 64 1008.4
20260506071201 10 198 1.6 1.6 0.00 0.00 0.00 62 1008.8
20260506070657 10 204 1.6 1.6 0.00 0.00 0.00 63 1008.8
20260506070154 10 196 0.0 0.0 0.00 0.00 0.00 64 1009.1
20260506062131 10 196 0.0 0.0 0.00 0.00 0.00 64 1009.1
20260506061627 10 196 0.0 0.0 0.00 0.00 0.00 63 1009.1
20260506061125 10 197 0.0 0.0 0.00 0.00 0.00 64 1008.8
20260506060623 10 201 0.0 1.6 0.00 0.00 0.00 63 1009.1
20260506060120 10 195 0.0 0.0 0.00 0.00 0.00 64 1009.4
20260506051052 10 195 0.0 0.0 0.00 0.00 0.00 61 1009.1
20260506050550 10 195 0.0 0.0 0.00 0.00 0.00 61 1009.1
20260506045040 10 195 0.0 0.0 0.00 0.00 0.00 61 1009.1
20260506044538 10 195 0.0 0.0 0.00 0.00 0.00 60 1009.1
20260506044035 10 195 0.0 0.0 0.00 0.00 0.00 60 1008.8
20260506043532 10 195 0.0 0.0 0.00 0.00 0.00 59 1009.1
20260506043030 10 195 0.0 0.0 0.00 0.00 0.00 59 1009.1
20260506042529 10 194 0.0 0.0 0.00 0.00 0.00 59 1009.1
20260506042027 10 194 0.0 0.0 0.00 0.00 0.00 59 1009.1
20260506041525 10 194 0.0 0.0 0.00 0.00 0.00 59 1009.1
20260506041021 10 194 0.0 0.0 0.00 0.00 0.00 59 1008.8
20260506040519 10 194 0.0 0.0 0.00 0.00 0.00 58 1008.4
20260506040015 10 194 0.0 0.0 0.00 0.38 0.38 60 1008.8
20260506035512 10 194 0.0 0.0 0.00 0.38 0.38 60 1008.8
20260506035009 10 194 0.0 0.0 0.00 0.38 0.38 60 1008.8
20260506034507 10 194 0.0 0.0 0.00 0.38 0.38 60 1009.1
20260506034003 10 194 0.0 0.0 0.00 0.38 0.38 59 1008.8
20260506033501 10 194 0.0 0.0 0.00 0.38 0.38 58 1008.8
20260506032957 10 194 0.0 0.0 0.00 0.38 0.38 59 1008.8
20260506032455 11 194 0.0 0.0 0.00 0.38 0.38 59 1009.1
20260506031951 11 194 0.0 0.0 0.00 0.38 0.38 58 1009.1
20260506031449 11 194 0.0 0.0 0.00 0.38 0.38 56 1009.1
20260506030946 11 194 0.0 0.0 0.00 0.38 0.38 57 1009.1
20260506030444 11 194 0.0 0.0 0.00 0.38 0.38 56 1009.1
20260506025940 11 194 0.0 0.0 0.00 0.38 0.38 54 1008.8
20260506025437 11 194 0.0 0.0 0.00 0.38 0.38 55 1009.1
20260506024934 11 194 0.0 0.0 0.00 0.38 0.38 52 1008.8
20260506024431 11 194 0.0 0.0 0.00 0.38 0.38 52 1009.1
20260506023926 11 195 1.6 1.6 0.00 0.38 0.38 52 1009.1
20260506023424 11 195 1.6 1.6 0.00 0.38 0.38 52 1009.1
20260506022920 11 193 0.0 0.0 0.00 0.38 0.38 51 1009.1
20260506022418 11 190 0.0 0.0 0.00 0.38 0.38 52 1009.1
20260506021916 11 191 0.0 0.0 0.00 0.38 0.38 51 1009.1
20260506021413 11 195 1.6 1.6 0.00 0.38 0.38 51 1008.8
20260506020910 11 195 0.0 1.6 0.00 0.38 0.38 51 1009.1
20260506020408 11 203 1.6 1.6 0.00 0.38 0.38 50 1009.1
20260506015904 11 188 0.0 0.0 0.00 0.38 0.38 49 1008.8
20260506015402 11 191 0.0 1.6 0.00 0.38 0.38 49 1008.8
20260506014859 11 198 1.6 1.6 0.00 0.38 0.38 50 1008.8
20260506014355 11 203 1.6 1.6 0.00 0.38 0.38 50 1008.4
20260506013852 11 203 1.6 1.6 0.00 0.38 0.38 53 1008.8
20260506013350 11 186 0.0 1.6 0.00 0.38 0.38 53 1008.4
20260506012846 11 183 0.0 0.0 0.00 0.38 0.38 53 1008.1
20260506012343 11 177 0.0 1.6 0.00 0.38 0.38 53 1008.1
20260506011840 11 164 1.6 3.2 0.00 0.38 0.38 53 1008.4
20260506011337 12 189 0.0 0.0 0.00 0.38 0.38 55 1008.4
20260506010834 12 191 1.6 1.6 0.00 0.38 0.38 54 1008.4
20260506010332 12 203 1.6 1.6 0.00 0.38 0.38 53 1008.1
20260506005829 12 202 1.6 1.6 0.00 0.38 0.38 54 1008.4
20260506005326 12 196 1.6 1.6 0.00 0.38 0.38 54 1008.4
20260506004822 12 195 0.0 1.6 0.00 0.38 0.38 54 1008.4
20260506004319 12 202 1.6 1.6 0.00 0.38 0.38 55 1008.4
20260506003815 12 203 1.6 1.6 0.00 0.38 0.38 54 1008.1
20260506003312 12 191 1.6 1.6 0.00 0.38 0.38 57 1008.4
20260506002808 12 187 0.0 0.0 0.00 0.38 0.38 56 1008.1
20260506002306 12 195 1.6 1.6 0.00 0.38 0.38 55 1008.4
20260506001800 12 190 0.0 0.0 0.00 0.38 0.38 56 1008.4
20260506001258 12 199 0.0 0.0 0.00 0.38 0.38 55 1008.1
20260506000754 12 188 0.0 0.0 0.00 0.38 0.38 55 1008.1
20260506000254 12 196 1.6 1.6 0.00 0.38 0.38 56 1008.1
20260505235749 12 192 1.6 1.6 0.00 0.38 0.38 56 1008.1
20260505235247 12 198 0.0 1.6 0.00 0.38 0.38 56 1007.7
20260505234743 12 192 0.0 0.0 0.00 0.38 0.38 55 1008.1
20260505234241 12 188 0.0 1.6 0.00 0.38 0.38 57 1007.7
20260505233737 12 189 0.0 0.0 0.00 0.38 0.38 57 1007.7
20260505233236 12 188 0.0 0.0 0.00 0.38 0.38 56 1007.7
20260505232732 12 203 1.6 1.6 0.00 0.38 0.38 54 1007.7
20260505232230 12 205 1.6 1.6 0.00 0.38 0.38 54 1007.7
20260505231726 12 234 3.2 3.2 0.00 0.38 0.38 53 1007.4
20260505231225 12 214 1.6 3.2 0.00 0.38 0.38 52 1007.7
20260505230723 13 207 1.6 3.2 0.00 0.38 0.38 53 1007.4
20260505230219 13 209 3.2 3.2 0.00 0.38 0.38 54 1007.4
20260505225716 13 170 0.0 0.0 0.00 0.38 0.38 54 1007.7
20260505225213 13 185 0.0 1.6 0.00 0.38 0.38 55 1007.7
20260505224708 13 161 1.6 3.2 0.00 0.38 0.38 56 1007.7
20260505224206 13 180 1.6 3.2 0.00 0.38 0.38 57 1007.7
20260505223704 13 221 1.6 3.2 0.00 0.38 0.38 58 1007.7
20260505223200 13 224 3.2 3.2 0.00 0.38 0.38 59 1007.7
20260505222656 13 214 3.2 4.8 0.00 0.38 0.38 59 1007.7
20260505222152 13 261 6.4 6.4 0.00 0.38 0.38 61 1007.7
20260505221650 13 191 0.0 1.6 0.00 0.38 0.38 63 1007.7
20260505221146 13 209 1.6 3.2 0.00 0.38 0.38 64 1007.7
20260505220643 13 176 3.2 4.8 0.00 0.38 0.38 64 1007.7
20260505220141 13 169 1.6 3.2 0.00 0.38 0.38 65 1007.7
20260505215638 13 256 3.2 4.8 0.00 0.38 0.38 64 1007.7
20260505215136 13 187 1.6 1.6 0.00 0.38 0.38 64 1007.4
20260505214634 13 184 0.0 0.0 0.00 0.38 0.38 66 1007.7
20260505214131 13 274 6.4 6.4 0.00 0.38 0.38 65 1007.7
20260505213628 13 177 3.2 4.8 0.00 0.38 0.38 65 1007.7
20260505213125 13 259 6.4 6.4 0.00 0.38 0.38 66 1007.7
20260505212620 13 226 3.2 3.2 0.00 0.38 0.38 66 1007.7
20260505212119 13 270 4.8 4.8 0.00 0.38 0.38 66 1007.7
20260505211615 13 204 1.6 3.2 0.00 0.38 0.38 66 1007.7
20260505211112 13 186 3.2 4.8 0.00 0.38 0.38 66 1007.7
20260505210609 13 276 4.8 6.4 0.00 0.38 0.38 66 1007.7
20260505210106 13 266 4.8 6.4 0.00 0.38 0.38 67 1007.7
20260505205604 13 223 3.2 3.2 0.00 0.38 0.38 66 1007.7
20260505205101 13 246 4.8 4.8 0.00 0.38 0.38 68 1007.7
20260505204558 13 221 3.2 3.2 0.00 0.38 0.38 68 1007.7
20260505204056 13 278 3.2 4.8 0.00 0.38 0.38 69 1008.1
20260505203552 13 247 3.2 4.8 0.00 0.38 0.38 69 1007.7
20260505203049 13 222 3.2 3.2 0.00 0.38 0.38 69 1007.7
20260505202545 13 191 6.4 6.4 0.00 0.38 0.38 70 1007.7
20260505202041 13 215 4.8 4.8 0.00 0.38 0.38 70 1008.1
20260505201538 13 220 3.2 4.8 0.00 0.38 0.38 69 1008.1
20260505201036 13 185 0.0 1.6 0.00 0.38 0.38 71 1007.7
20260505200534 13 253 4.8 4.8 0.00 0.38 0.38 71 1008.1
20260505200030 13 226 3.2 3.2 0.00 0.38 0.38 70 1007.7
20260505195526 13 189 3.2 4.8 0.00 0.38 0.38 70 1007.7
20260505195024 13 190 1.6 3.2 0.00 0.38 0.38 71 1007.7
20260505194521 12 235 4.8 4.8 0.00 0.38 0.38 71 1007.7
20260505194016 12 190 1.6 1.6 0.00 0.38 0.38 71 1008.1
20260505193514 12 236 3.2 3.2 0.00 0.38 0.38 72 1008.1
20260505193011 12 222 3.2 3.2 0.00 0.38 0.38 71 1008.1
20260505192509 12 237 1.6 3.2 0.00 0.38 0.38 72 1008.1
20260505192007 12 230 3.2 4.8 0.00 0.38 0.38 72 1008.1
20260505191505 12 258 1.6 3.2 0.00 0.38 0.38 72 1008.1
20260505191002 12 186 0.0 1.6 0.00 0.38 0.38 73 1008.4
20260505190456 12 188 1.6 1.6 0.00 0.38 0.38 72 1008.1
20260505185952 12 180 0.0 1.6 0.00 0.38 0.38 72 1008.1
20260505185450 12 237 4.8 4.8 0.00 0.38 0.38 71 1008.4
20260505184946 12 285 6.4 9.7 0.00 0.38 0.38 71 1008.4
20260505184443 12 291 9.7 12.9 0.00 0.38 0.38 72 1008.4
20260505183939 12 230 4.8 4.8 0.00 0.38 0.38 73 1008.1
20260505183437 12 260 4.8 4.8 0.00 0.38 0.38 71 1008.1
20260505182933 12 290 9.7 12.9 0.00 0.38 0.38 71 1008.1
20260505182430 12 279 6.4 6.4 0.00 0.38 0.38 72 1007.7
20260505181926 12 268 3.2 4.8 0.00 0.38 0.38 72 1008.1
20260505181424 12 188 1.6 1.6 0.00 0.38 0.38 72 1007.7
20260505180921 12 213 1.6 3.2 0.00 0.38 0.38 73 1007.7
20260505180417 12 227 6.4 9.7 0.00 0.38 0.38 73 1007.7
20260505175914 12 198 1.6 1.6 0.00 0.38 0.38 75 1007.7
20260505175410 12 184 0.0 0.0 0.00 0.38 0.38 75 1007.7
20260505174906 12 200 1.6 1.6 0.00 0.38 0.38 76 1007.7
20260505174404 12 263 1.6 4.8 0.00 0.38 0.38 76 1007.4
20260505173900 12 242 3.2 3.2 0.00 0.38 0.38 77 1007.7
20260505173356 12 192 1.6 1.6 0.00 0.38 0.38 78 1007.7
20260505172853 12 204 3.2 3.2 0.00 0.38 0.38 79 1007.4
20260505172351 11 205 3.2 4.8 0.00 0.38 0.38 78 1007.4
20260505171851 11 184 0.0 1.6 0.00 0.38 0.38 78 1007.7
20260505171348 11 205 3.2 6.4 0.00 0.38 0.38 77 1007.4
20260505170844 12 216 3.2 3.2 0.00 0.38 0.38 77 1007.4
20260505170341 12 184 1.6 3.2 0.00 0.38 0.38 77 1007.7
20260505165836 12 195 4.8 6.4 0.00 0.38 0.38 77 1007.4